GFSNW_sfc_wetblb_051.txt.gz
Wetbulb
49.73 49.88 50.00 50.16 50.19 50.25 42.64 35.51 33.94 45.17 45.56 38.86 39.41 26.37 34.65 40.77 37.88 39.29 37.81 35.62 34.52 31.83 33.51 32.70 31.10 34.33 35.52 41.17 40.37 35.45 35.68 32.60 28.76 32.13 38.49 40.98 38.54 36.08 33.39 28.89 24.32 22.20 20.36 23.75
49.50 49.56 49.66 49.89 49.94 49.19 38.78 33.61 35.68 45.66 45.64 35.17 29.93 34.56 37.16 38.77 37.75 36.98 36.71 34.85 36.41 35.17 32.07 30.61 32.00 33.02 38.22 41.82 38.75 35.87 36.91 30.94 27.00 29.27 33.19 37.30 36.74 37.73 36.63 34.11 28.93 23.20 20.35 25.67
49.38 49.28 49.31 49.43 49.25 48.30 39.86 33.89 29.05 36.79 42.15 41.13 33.76 32.97 34.56 34.39 39.39 37.97 37.62 35.83 36.28 33.71 31.77 33.93 31.97 32.79 37.04 38.55 39.64 43.04 40.77 31.14 26.91 23.91 25.13 30.72 32.98 35.22 37.37 35.22 28.15 28.30 26.81 28.72
49.21 49.03 48.96 49.05 48.98 46.12 37.16 31.58 29.55 30.74 32.48 33.67 33.54 35.04 35.77 34.83 35.35 37.96 38.45 35.06 35.05 33.02 29.25 30.65 30.90 33.24 34.01 36.85 40.70 36.52 34.68 26.16 26.39 28.98 31.34 31.03 30.53 31.72 34.99 34.05 34.50 30.39 32.95 30.96
48.88 48.78 48.63 48.72 49.05 44.01 32.55 27.61 27.16 30.83 28.91 30.63 32.48 34.31 34.71 34.09 34.84 38.57 36.20 33.81 36.12 33.64 32.25 32.02 30.77 33.27 32.08 32.31 33.64 32.93 33.22 23.39 25.95 22.99 29.29 30.92 29.33 31.07 32.93 34.48 35.07 34.82 34.75 32.54
48.47 48.57 48.46 48.50 48.39 41.58 31.70 32.08 32.72 31.19 28.60 25.79 29.98 26.26 31.20 32.76 34.74 40.33 39.22 36.45 35.06 35.00 36.29 37.05 37.62 36.41 35.66 35.05 33.68 32.05 30.82 25.62 20.56 17.65 27.36 27.40 24.02 28.80 30.06 32.15 34.92 35.46 32.43 36.72
48.26 48.38 48.47 48.20 48.23 42.19 34.50 32.72 30.75 25.65 24.05 25.89 25.53 28.00 31.21 31.90 34.31 34.19 37.81 39.54 37.97 38.97 42.23 39.47 37.38 35.78 34.78 35.02 33.23 34.92 29.49 26.16 22.67 16.95 23.59 13.91 27.66 31.87 33.44 31.96 34.18 36.10 36.10 35.70
47.93 48.21 48.42 48.02 47.81 46.75 36.51 34.32 31.43 27.53 23.55 25.54 26.80 28.20 28.22 30.24 32.44 33.91 37.83 40.95 39.21 38.70 39.97 33.86 30.78 29.84 31.06 32.18 33.77 33.56 33.50 29.92 23.10 18.75 17.59 24.65 28.91 31.33 31.46 30.09 30.89 34.62 35.45 37.50
47.73 47.76 47.63 47.34 47.30 46.77 37.89 35.78 34.49 30.35 26.47 25.45 29.31 26.90 27.40 24.27 24.95 29.71 36.50 39.92 37.84 42.03 37.26 33.50 25.25 23.42 26.09 26.36 30.15 36.18 36.62 34.13 27.02 24.90 21.72 18.27 28.04 34.99 35.96 34.87 27.62 36.43 35.79 35.34
47.41 47.26 47.08 46.77 46.92 46.82 39.49 36.96 36.45 31.45 26.92 28.52 28.95 25.70 25.43 28.28 25.64 24.75 31.60 30.32 33.56 39.15 35.31 31.97 28.16 23.32 29.26 25.50 25.68 27.00 31.01 31.70 27.03 28.43 25.76 26.86 32.39 34.30 37.34 25.70 28.61 38.04 37.83 36.15
47.52 47.16 47.15 47.02 47.17 47.07 39.80 37.14 41.18 33.88 29.77 29.13 32.56 32.91 28.09 28.67 26.97 23.88 28.51 32.40 32.85 35.17 32.38 30.78 30.00 27.35 27.23 24.88 27.47 27.60 27.60 25.68 26.02 27.88 27.03 21.38 34.60 35.69 31.61 35.06 37.97 38.89 38.75 36.47
47.49 47.56 47.48 47.13 47.13 47.19 42.19 37.63 42.61 42.24 31.22 29.96 34.63 35.33 35.33 34.04 33.09 29.11 28.85 30.06 32.34 33.18 32.65 33.14 33.62 31.83 28.24 25.40 23.43 27.88 27.04 29.35 27.22 28.51 29.03 35.27 34.97 37.43 39.32 40.01 39.59 38.98 38.83 38.94
47.53 47.04 46.87 47.08 47.01 46.66 43.16 36.77 37.01 39.05 33.99 28.23 28.96 29.35 33.39 37.06 36.33 36.59 27.36 31.48 34.01 32.60 34.05 31.23 32.19 30.16 35.18 29.02 27.07 26.83 29.48 31.87 30.18 30.21 32.81 33.85 35.93 37.60 39.37 39.96 40.16 40.25 41.00 40.56
47.16 46.95 47.02 47.14 46.51 45.77 42.75 35.85 38.29 39.49 33.48 23.19 27.11 35.35 32.44 36.62 37.79 37.49 36.51 34.80 35.46 34.26 31.87 30.04 28.38 27.99 33.55 32.02 31.40 32.34 34.25 34.39 31.88 30.27 33.47 34.14 36.31 37.51 38.49 40.51 40.88 40.32 39.61 39.86
46.89 46.99 46.73 45.89 45.45 43.94 38.85 36.26 36.21 37.15 29.37 24.39 26.84 31.75 34.00 35.40 36.59 36.22 36.31 35.34 33.09 31.31 28.71 27.12 26.45 28.98 29.11 28.83 29.58 28.74 33.16 31.64 30.24 30.40 35.28 33.13 34.73 36.91 38.75 39.23 39.70 40.14 39.72 38.52
46.63 46.11 45.02 45.24 45.16 42.10 36.46 30.78 35.08 37.71 35.37 23.76 20.55 30.92 30.72 32.52 35.16 33.95 34.26 34.47 32.99 31.60 29.15 27.23 27.58 30.31 29.41 22.36 22.35 29.21 30.97 34.39 34.92 32.15 36.48 35.85 37.34 39.40 38.55 38.35 39.42 39.48 39.45 39.19
45.79 45.02 45.73 44.82 43.43 36.24 31.77 30.99 35.98 40.67 35.41 25.56 18.78 20.96 30.96 33.75 33.48 32.23 31.73 32.64 31.37 29.41 27.38 27.43 26.08 25.87 26.90 25.51 22.43 27.77 28.94 29.40 29.77 31.88 32.02 31.62 38.08 36.76 38.54 38.85 37.85 39.64 36.98 36.89
44.93 45.50 44.99 44.77 44.11 40.29 33.38 36.40 41.62 40.77 31.47 25.44 14.48 19.40 24.95 33.97 29.66 29.31 32.25 29.62 29.73 30.32 28.82 28.17 26.57 27.19 25.80 21.78 26.07 28.26 29.28 29.56 29.43 30.28 32.94 34.73 36.67 37.94 37.16 36.72 36.21 35.40 35.12 35.07
45.26 45.51 44.25 37.13 33.21 29.78 32.27 42.12 41.99 39.33 33.87 18.71 17.16 18.91 18.69 33.16 30.37 33.62 30.98 29.69 24.94 28.65 25.65 26.21 26.72 24.66 22.08 27.26 29.32 30.48 32.45 32.00 30.33 34.20 33.49 35.19 36.44 37.62 37.47 36.75 35.16 33.59 33.93 34.32
44.68 36.31 32.04 27.71 31.56 40.06 39.97 35.91 33.90 33.18 32.72 25.06 17.80 26.16 22.44 27.99 29.44 28.07 29.15 29.42 25.83 18.59 25.66 28.33 25.22 24.08 29.94 33.85 35.70 34.40 33.77 35.85 35.61 32.23 32.65 33.64 32.67 35.51 35.69 35.13 35.33 34.65 34.01 33.70
33.82 30.36 27.53 31.84 39.87 34.39 33.89 30.38 26.22 26.31 20.97 30.08 27.87 28.40 24.88 30.85 28.44 29.10 32.43 27.19 26.68 20.90 23.71 24.23 22.83 27.04 33.30 34.52 33.15 35.31 35.25 35.47 36.69 37.04 35.64 34.45 35.28 34.75 34.98 35.65 35.64 35.49 34.96 33.64
34.12 33.42 34.48 32.33 27.88 22.37 16.94 13.94 21.39 20.76 18.38 27.46 28.99 29.16 28.04 28.56 33.67 32.00 33.00 27.75 29.52 22.49 28.55 25.74 25.72 30.22 34.11 33.47 32.72 33.85 33.82 34.86 36.28 36.08 34.18 33.73 33.95 34.90 35.86 35.38 34.48 34.42 34.65 34.06
32.02 29.23 21.42 23.87 18.46 14.47 9.98 7.95 12.14 13.88 19.99 21.71 23.69 20.19 25.24 30.58 32.03 31.04 31.33 27.37 27.43 32.11 26.99 27.24 29.19 32.50 33.60 33.34 32.88 33.10 34.72 34.62 35.22 34.52 34.68 34.33 33.36 32.03 31.25 29.37 29.15 30.37 29.90 31.05
23.77 18.37 15.11 14.71 10.22 12.01 14.51 15.82 15.60 21.45 26.14 21.89 26.16 22.03 25.97 26.86 25.57 29.91 26.94 30.64 32.71 25.41 21.40 23.00 25.65 32.24 33.40 33.50 33.92 32.53 32.26 33.20 33.14 32.15 32.23 32.39 31.39 30.26 30.36 29.95 29.15 28.46 27.59 27.64
21.84 20.28 14.03 11.49 18.12 19.61 20.81 22.36 23.49 21.71 24.08 24.53 23.92 21.88 27.73 27.81 26.05 26.68 28.50 26.90 15.59 23.37 22.03 25.67 28.94 31.40 33.30 32.19 33.19 31.85 30.16 30.32 31.58 32.28 31.23 30.54 29.92 28.72 28.24 27.13 26.63 28.20 27.50 26.45
19.68 15.35 14.62 19.86 14.74 9.50 22.43 22.76 18.87 22.14 25.03 23.67 23.65 17.11 21.65 24.36 25.44 23.85 22.49 14.04 11.94 18.05 21.72 25.67 29.51 31.44 31.95 30.87 31.99 32.27 31.07 27.62 31.00 31.59 31.48 31.12 30.26 28.31 27.28 26.01 24.98 26.48 27.32 26.71
15.39 15.33 23.27 17.79 14.78 16.09 17.93 24.04 24.93 26.81 23.03 16.34 15.99 11.76 15.56 23.39 20.56 20.79 25.39 16.01 18.20 19.13 25.04 26.24 28.83 28.32 29.98 30.09 30.01 30.55 30.56 27.79 29.07 30.36 31.26 30.38 30.32 28.88 27.92 24.19 23.81 24.31 25.68 25.99

GFSNW_sfc_wetblb_054.txt.gz
Wetbulb
49.49 49.68 49.87 50.05 49.89 48.99 42.05 35.65 36.40 45.89 47.32 37.80 39.32 33.31 33.55 40.18 37.10 38.81 36.89 34.91 34.37 31.64 36.34 35.60 33.98 32.63 35.22 40.05 39.55 33.86 34.57 31.38 29.53 32.57 38.38 40.40 38.90 33.60 31.87 23.93 21.91 21.09 19.78 25.89
49.30 49.35 49.48 49.65 49.41 47.43 38.20 33.22 36.60 46.01 45.64 34.46 32.22 34.20 36.49 37.90 36.90 36.29 36.11 34.21 35.96 34.46 32.06 31.32 33.71 34.31 38.35 40.48 37.66 34.54 35.25 28.25 27.45 27.89 33.18 36.97 36.21 37.20 36.44 32.49 28.41 20.72 22.72 26.22
48.92 49.01 49.12 49.27 48.51 47.37 38.86 33.11 29.30 36.64 42.30 39.52 34.06 31.14 33.15 33.45 38.74 36.99 36.70 34.96 35.07 32.97 31.57 33.31 31.34 32.98 37.94 39.84 38.39 43.83 39.49 30.07 25.33 22.35 25.38 31.36 32.53 35.09 36.56 34.59 29.99 28.88 29.10 30.94
48.67 48.81 48.90 49.03 47.62 45.05 36.00 30.49 28.41 29.84 25.94 31.91 33.67 33.86 34.41 33.40 34.49 37.80 36.95 33.95 34.57 31.65 28.60 30.30 29.88 32.78 33.52 37.40 41.98 38.52 36.97 27.03 26.20 28.33 29.88 31.33 31.21 32.10 34.82 33.68 33.74 29.89 32.41 32.48
48.45 48.67 48.56 48.63 47.11 42.81 32.09 27.37 26.53 29.56 26.89 27.91 30.35 32.22 34.04 31.41 33.31 36.08 35.09 33.74 35.40 33.22 31.61 31.01 29.31 32.14 30.96 31.90 33.26 33.13 33.10 25.17 26.42 25.37 29.31 30.18 28.86 30.50 31.89 34.00 34.91 35.46 35.41 34.16
48.45 48.51 48.23 48.31 46.73 40.41 31.16 30.49 31.42 30.05 26.94 25.38 29.97 25.11 30.43 32.19 35.17 38.40 37.68 36.92 34.10 33.69 35.65 36.27 35.52 35.78 34.57 33.49 32.96 31.21 31.44 26.25 20.58 17.74 26.40 26.76 23.18 28.43 30.13 31.00 34.20 34.58 31.01 35.85
48.22 48.31 48.07 47.97 46.20 40.89 33.95 31.64 29.63 25.45 24.46 25.31 25.04 27.76 30.10 30.03 32.12 33.21 37.77 38.06 36.78 37.56 38.24 38.81 35.99 34.78 34.16 34.53 31.80 33.91 28.46 25.33 22.21 16.88 21.88 12.77 26.53 30.58 32.42 31.17 32.58 34.89 35.63 37.09
47.97 47.95 47.51 47.59 46.85 44.68 35.52 32.96 30.84 26.86 23.90 25.82 26.80 27.20 26.83 28.23 29.64 31.60 36.71 39.56 36.35 35.16 38.34 33.56 30.48 29.28 30.39 31.21 32.86 31.20 32.18 28.57 22.35 18.03 17.13 23.88 26.65 30.48 30.34 29.55 30.02 32.95 33.59 35.99
47.65 47.20 47.14 47.21 46.92 44.99 37.01 34.63 33.22 29.70 26.44 24.95 28.00 25.93 26.29 23.36 22.37 27.84 35.44 38.82 36.81 39.32 35.72 32.80 25.24 22.84 25.50 25.56 28.47 35.08 35.79 31.81 25.90 24.10 17.66 16.76 26.26 33.22 35.19 34.05 26.52 35.20 35.89 35.43
47.53 47.00 46.79 47.11 47.13 45.38 38.52 36.08 34.80 30.83 26.89 27.64 27.66 24.70 25.01 27.31 24.61 22.61 30.66 30.11 32.63 38.64 34.20 32.22 27.91 23.19 27.11 24.46 24.48 26.01 29.40 31.47 23.74 25.76 25.51 26.54 31.82 33.77 35.33 25.20 27.14 36.74 37.47 37.81
47.56 47.18 47.08 47.38 47.19 45.71 39.17 36.27 38.91 32.54 27.81 28.28 31.62 32.09 26.34 27.70 25.86 22.51 26.20 31.25 32.59 34.98 31.66 30.89 29.33 26.97 25.78 23.44 25.46 25.78 26.89 24.30 24.61 25.87 25.53 20.17 33.47 34.08 30.11 34.59 36.93 38.26 38.62 38.06
47.77 47.65 47.31 47.13 47.09 45.89 41.42 36.64 39.85 38.81 30.62 29.63 33.40 34.13 34.02 33.17 32.34 27.90 26.86 28.24 32.99 32.03 32.68 31.85 32.96 31.09 30.23 24.16 22.69 27.20 25.95 28.46 26.20 27.63 27.28 34.00 33.20 36.14 37.73 38.44 38.47 38.86 38.33 39.17
47.76 47.50 47.14 47.33 46.83 45.78 41.96 35.50 36.25 35.54 28.49 28.18 28.84 28.72 32.89 35.75 35.09 35.70 26.02 29.50 33.28 32.23 33.34 31.29 31.59 30.46 34.86 29.15 28.65 25.72 27.58 30.65 28.96 29.38 31.47 32.42 34.33 35.39 35.54 37.18 38.37 40.15 40.73 41.72
47.56 47.34 47.58 47.07 46.10 45.13 41.38 35.18 35.96 34.99 30.58 24.02 27.10 34.58 31.47 35.46 36.62 36.70 35.17 33.76 34.13 32.89 29.83 26.50 26.59 26.33 30.51 30.15 30.37 30.44 33.28 33.74 31.03 29.65 32.47 34.12 34.05 34.98 35.35 35.50 38.35 38.70 40.18 39.93
47.23 47.30 46.74 46.15 45.26 43.94 38.71 35.62 35.29 35.84 29.68 25.15 26.55 30.42 32.69 33.69 34.94 34.75 35.49 34.29 31.49 28.23 24.79 22.53 25.52 28.81 28.95 28.74 28.91 28.24 29.63 28.35 26.88 26.65 32.91 30.89 31.91 33.87 33.58 37.20 37.74 38.83 38.98 38.77
47.13 46.52 45.61 45.25 43.91 41.75 35.38 29.95 34.37 37.01 34.14 23.95 20.88 29.49 29.48 31.75 33.37 32.67 33.11 33.65 32.23 30.42 27.80 26.53 27.49 30.10 29.23 24.87 23.25 27.64 29.72 30.52 31.88 27.30 30.65 30.49 31.18 33.37 34.30 36.12 36.82 38.67 38.41 38.80
46.30 45.43 45.67 44.82 43.66 35.32 31.74 30.27 34.70 39.48 34.12 25.47 18.94 20.63 29.89 32.54 31.46 30.70 30.00 31.07 29.90 28.94 27.65 27.69 26.32 25.94 26.83 25.84 22.25 27.66 28.88 30.32 31.27 33.06 28.72 28.24 30.63 31.16 34.96 36.08 37.52 39.05 36.18 35.97
45.69 45.68 45.02 44.07 43.57 39.35 33.58 37.50 41.01 37.27 30.12 24.94 13.62 17.12 23.87 32.97 29.08 28.68 31.07 28.74 29.51 29.58 28.05 27.98 26.42 27.17 25.68 21.59 25.94 29.56 32.85 33.73 33.00 31.65 31.12 31.85 34.25 34.99 35.57 36.97 36.88 36.35 34.96 34.37
45.50 45.14 44.51 36.48 32.89 29.84 31.94 42.24 40.73 36.16 30.66 18.66 17.17 20.39 15.56 30.34 28.58 34.17 31.69 29.28 25.23 28.53 26.03 26.10 27.21 24.81 21.74 27.91 30.00 32.23 32.94 32.78 32.71 34.84 36.10 35.57 34.52 34.89 35.61 36.37 36.67 36.04 35.05 34.40
45.65 36.59 31.59 27.52 31.57 39.80 40.01 36.44 29.77 28.57 27.60 25.02 16.68 27.82 20.95 25.81 25.30 26.06 29.11 27.89 25.36 18.92 25.59 28.42 25.17 24.85 29.22 31.60 34.49 33.69 33.32 34.28 33.66 31.54 31.86 33.77 32.21 32.87 34.06 35.67 36.12 36.02 35.81 34.61
34.10 30.46 27.93 31.88 39.42 33.03 29.32 22.13 21.28 22.91 18.67 27.15 27.77 28.09 22.77 29.12 21.47 24.56 30.94 29.11 25.26 17.13 24.45 25.30 24.63 25.21 30.49 34.03 33.83 33.35 33.26 33.50 33.17 35.81 35.38 33.85 33.49 31.53 33.60 34.97 34.66 35.12 35.52 34.01
34.74 33.46 33.94 31.15 26.74 20.21 16.69 11.67 19.50 19.87 17.61 24.62 23.19 26.41 27.19 27.59 32.43 30.06 31.36 25.12 27.53 23.22 28.55 25.68 24.55 27.82 30.06 33.13 33.06 32.65 32.58 32.28 32.27 33.92 34.47 33.81 33.73 33.11 33.35 32.91 32.29 33.31 33.73 33.45
32.44 29.18 21.93 24.02 17.88 14.48 10.80 8.95 10.73 12.26 19.14 23.23 23.15 17.84 24.52 27.63 29.95 27.04 29.92 26.84 26.43 30.06 26.48 23.66 25.53 30.01 31.81 32.48 32.98 32.67 33.30 32.95 32.45 32.18 33.02 33.69 33.53 32.21 30.72 29.35 28.87 28.86 28.72 29.07
24.67 18.40 14.97 14.88 12.54 12.79 14.74 14.43 15.22 20.83 27.06 22.24 23.41 18.67 25.02 26.87 23.73 26.30 20.71 29.23 31.34 20.05 14.27 16.82 20.06 25.97 30.44 32.07 32.34 32.11 31.54 31.97 30.87 31.18 31.39 30.93 31.01 30.28 30.08 28.04 27.87 28.09 27.67 27.58
20.10 20.06 15.51 12.50 18.68 20.20 18.13 20.68 23.08 21.37 25.46 24.41 20.93 19.92 24.03 21.52 24.75 26.39 25.27 22.80 16.83 16.54 14.95 17.16 20.62 23.95 28.12 30.21 31.15 30.61 30.61 31.46 30.39 30.80 30.93 28.81 29.13 29.09 27.64 27.62 26.73 28.40 28.15 27.19
19.79 16.56 16.99 20.57 16.31 12.00 23.70 23.86 19.04 21.11 24.31 24.23 21.48 15.36 13.01 16.78 20.42 23.21 20.70 22.10 13.24 16.43 16.43 21.56 24.36 24.81 26.21 26.88 28.76 28.97 29.43 30.63 30.96 30.00 31.02 31.30 30.15 28.72 28.58 27.87 25.56 25.78 26.15 26.19
18.71 17.07 24.28 18.83 14.13 17.70 18.96 23.82 24.10 25.77 22.18 15.95 15.42 9.71 13.36 22.43 20.34 19.55 24.59 21.96 17.65 15.93 28.84 27.15 24.05 23.80 25.14 26.24 26.21 26.87 28.15 29.51 30.12 29.25 30.67 31.14 31.00 29.49 28.37 27.19 27.11 25.59 25.61 25.68

GFSNW_sfc_wetblb_057.txt.gz
Wetbulb
48.95 49.19 49.46 49.78 49.78 47.76 42.05 36.43 36.83 45.97 47.37 37.71 39.30 34.53 35.95 40.57 38.26 37.96 36.46 36.52 35.80 34.98 36.68 35.47 33.19 32.31 35.96 40.73 40.19 34.23 34.90 32.91 29.85 32.98 37.88 40.35 38.38 33.99 32.46 26.98 23.55 23.85 23.23 25.93
48.58 48.72 49.13 49.46 48.98 46.87 37.41 33.41 39.14 46.07 45.54 33.32 33.68 35.71 36.88 38.62 36.85 35.52 34.93 34.31 35.70 34.41 31.99 30.79 33.30 33.38 38.90 40.29 37.34 35.05 35.82 29.34 27.55 29.21 33.55 36.74 35.89 37.13 35.12 31.94 29.05 22.65 24.68 27.83
48.21 48.29 48.86 49.04 48.06 47.44 37.77 32.96 28.51 36.78 42.60 40.23 34.98 33.90 34.16 33.74 38.19 36.23 36.07 34.26 34.95 32.57 31.12 33.17 31.69 33.48 38.55 39.23 39.92 42.61 38.84 30.30 26.30 23.67 26.34 31.77 32.42 35.02 36.93 35.23 30.55 30.23 28.81 31.92
48.06 48.14 48.52 48.45 47.00 46.72 35.16 29.75 28.40 29.77 25.72 30.33 33.73 34.41 33.95 32.99 33.46 37.06 36.68 33.81 33.96 31.05 28.17 30.13 30.61 33.04 34.54 38.41 41.34 38.94 36.19 27.09 26.20 29.40 30.91 32.67 32.24 32.50 34.57 33.13 33.81 30.02 32.76 32.08
48.06 48.08 48.13 47.96 46.40 42.90 31.82 27.48 27.36 28.10 25.51 26.31 28.62 32.86 33.71 31.58 32.95 34.57 34.08 33.02 34.66 33.44 31.38 30.95 29.22 32.13 31.59 31.90 34.83 36.15 33.91 27.31 27.71 24.08 29.93 30.74 29.48 30.82 32.22 34.07 34.50 34.60 34.74 33.72
48.29 48.11 47.79 47.28 45.72 40.41 30.55 29.40 30.74 28.92 26.22 24.50 29.98 27.54 30.36 33.81 35.20 37.95 37.26 35.27 33.28 33.81 35.09 35.42 36.24 35.29 33.98 33.89 32.92 30.92 30.55 26.69 22.43 21.11 27.08 27.17 24.20 29.16 30.48 31.86 33.84 35.01 31.44 36.05
48.37 47.88 47.67 46.56 45.74 39.59 33.26 30.89 28.61 26.65 24.26 25.11 26.70 27.04 30.70 30.23 32.45 32.77 36.60 36.27 35.12 35.81 35.69 37.28 36.86 34.36 33.75 34.14 32.32 33.21 28.49 26.29 26.57 18.51 23.17 15.20 27.73 30.84 32.31 31.69 33.03 34.57 35.51 37.36
48.22 47.56 47.46 46.71 45.54 43.82 34.01 31.98 30.02 26.71 23.85 25.74 26.68 26.35 26.01 28.88 29.41 31.44 37.03 36.78 34.28 33.81 37.34 34.15 30.70 29.67 30.48 31.51 33.09 32.22 31.76 28.25 23.21 20.13 18.59 24.00 27.38 31.18 30.50 29.52 31.00 33.50 33.44 35.92
47.67 47.41 47.18 46.85 46.02 44.34 35.57 33.46 32.09 29.56 26.65 24.37 27.95 25.05 24.99 22.71 22.24 28.80 35.05 38.51 36.59 39.26 35.36 31.92 25.71 23.03 26.12 25.86 30.26 35.65 34.93 32.96 27.27 24.27 18.63 17.84 26.38 33.33 35.23 34.33 27.43 35.87 35.38 36.08
47.55 47.29 47.32 47.27 45.92 44.72 37.56 36.21 33.44 30.47 26.71 27.12 26.38 24.44 24.76 26.86 23.95 22.24 27.06 30.07 32.52 38.46 32.25 30.65 28.23 24.54 26.76 24.56 24.74 26.59 29.37 31.18 24.89 24.98 22.56 26.19 31.41 33.89 35.33 25.70 28.12 36.51 38.10 38.44
47.63 47.17 47.38 47.36 46.28 44.53 38.78 37.91 37.14 31.26 27.74 28.21 30.91 31.13 25.89 27.15 25.22 22.15 25.08 30.53 32.45 34.81 32.15 30.20 29.68 27.63 25.55 23.25 24.70 25.19 26.62 24.72 24.75 26.50 24.12 20.66 33.23 34.15 30.94 33.59 36.93 37.92 38.29 38.76
47.67 47.52 47.41 47.20 46.45 44.89 41.29 34.21 38.40 36.16 30.65 29.74 32.76 32.81 32.78 32.43 31.78 27.63 25.90 30.00 32.85 31.62 32.87 32.13 33.44 30.84 31.27 24.27 22.14 26.78 25.64 28.30 26.27 27.70 27.34 33.12 33.75 33.86 34.88 35.48 34.60 36.31 36.83 38.86
48.00 47.71 47.32 47.15 46.01 45.08 40.94 34.63 35.16 32.66 29.26 27.81 29.09 28.03 32.11 35.05 33.90 34.72 25.92 28.15 32.39 32.61 32.46 31.48 32.16 30.72 33.54 27.92 29.29 25.65 28.34 30.40 29.43 30.03 31.51 31.58 33.54 34.93 33.80 32.06 31.82 35.77 38.34 38.94
47.86 47.60 47.65 47.09 45.40 44.14 40.66 35.08 35.24 32.89 28.88 25.16 26.82 33.83 30.45 34.54 35.85 35.78 34.01 32.97 32.92 31.29 28.63 28.15 27.35 27.32 29.28 30.24 28.14 27.56 30.31 31.68 28.63 28.77 31.20 31.33 32.83 32.37 32.14 32.58 33.03 36.12 37.82 37.71
47.57 47.51 47.31 46.14 45.00 43.47 38.37 35.67 34.74 34.62 30.48 25.73 26.39 29.47 31.62 32.59 34.04 33.99 34.75 33.53 30.51 27.40 23.48 22.07 24.86 28.48 28.23 27.94 26.22 25.12 29.00 27.14 25.84 24.99 29.42 29.87 29.73 32.15 33.01 31.20 31.28 35.79 34.69 35.20
47.39 47.14 46.51 45.29 44.04 41.10 34.66 30.17 34.43 35.93 32.52 26.34 21.87 29.03 27.88 31.45 32.31 31.88 31.76 32.26 29.97 27.75 26.85 24.59 26.88 29.31 28.06 24.35 23.50 27.39 27.59 28.31 28.80 28.20 31.37 32.34 32.42 32.27 32.04 30.13 33.51 35.00 35.38 35.71
47.30 46.23 45.53 44.67 42.98 36.70 31.66 30.08 33.98 38.18 32.66 26.57 17.64 19.06 28.90 30.35 30.38 29.19 28.86 29.40 28.35 27.26 26.15 27.15 25.93 26.06 28.37 27.10 22.82 28.22 29.52 33.09 34.26 34.45 33.29 30.58 32.18 33.05 35.52 35.41 35.38 36.52 36.35 36.78
46.11 45.99 44.58 44.09 43.34 39.20 33.12 36.76 40.38 35.17 28.05 24.36 11.78 13.90 22.58 31.26 27.82 29.99 31.20 27.22 27.32 27.00 26.42 26.62 25.82 26.87 26.04 22.48 26.77 30.23 33.26 33.78 33.77 33.54 34.19 33.50 36.01 36.56 35.70 36.47 35.83 34.47 35.11 35.45
46.04 45.05 44.16 35.75 31.55 29.32 31.67 41.92 38.72 33.86 29.47 18.26 16.71 16.14 10.36 28.49 27.43 33.38 31.33 27.89 24.27 27.69 24.84 25.13 26.94 24.84 22.02 28.33 30.12 31.33 32.99 31.97 32.56 33.57 33.84 34.21 33.89 34.25 33.75 34.30 34.61 34.84 36.19 36.16
45.38 37.23 31.91 29.58 31.65 40.68 40.89 32.59 28.56 26.79 26.48 25.11 19.45 26.93 16.21 23.90 23.76 24.94 28.06 26.75 23.57 14.25 24.95 27.35 25.53 24.19 29.12 29.83 31.32 33.58 33.31 33.55 33.20 29.99 29.74 31.67 32.12 31.64 30.60 32.25 34.94 35.63 36.05 35.86
34.88 30.88 30.31 34.04 39.28 31.91 27.96 20.58 20.65 22.05 17.71 23.22 23.01 21.96 19.27 27.85 21.10 23.02 29.00 27.28 20.03 9.95 20.32 22.49 19.20 22.31 27.89 31.15 31.31 32.07 32.22 33.36 33.26 33.34 33.51 33.52 33.63 31.54 31.03 32.83 33.99 33.38 33.11 32.86
35.27 34.30 34.58 30.58 26.22 20.97 18.10 10.52 18.70 18.85 16.61 24.20 22.21 24.52 26.53 26.66 31.01 29.14 30.98 24.10 25.96 14.67 23.72 18.03 14.88 23.83 26.36 27.88 29.91 30.81 30.72 31.67 32.48 33.00 32.76 32.56 32.67 33.30 31.32 31.15 30.33 30.40 31.75 32.10
33.45 30.17 24.33 23.51 18.76 14.64 12.96 11.61 11.73 12.76 18.85 22.81 20.77 16.83 24.34 27.01 31.21 26.46 27.71 24.03 21.53 27.79 23.98 18.47 20.09 25.24 29.50 28.73 28.29 29.03 30.49 31.40 31.84 31.79 31.96 32.38 31.52 32.50 30.96 29.42 28.28 28.69 29.00 28.73
27.41 23.08 15.79 14.93 13.34 13.33 13.95 16.23 16.34 20.97 24.27 24.50 24.22 18.45 24.06 27.83 26.10 27.57 22.86 24.82 29.69 23.48 14.36 13.28 15.46 21.46 27.18 28.33 29.37 28.86 27.30 28.72 28.68 28.76 29.23 30.32 30.27 29.34 30.29 29.29 27.23 26.81 27.98 28.06
23.56 23.29 15.58 14.53 19.96 19.59 17.23 18.94 20.46 25.81 27.62 24.80 22.56 19.67 23.21 17.77 22.13 27.21 23.63 19.79 21.54 16.31 14.22 15.08 18.75 20.40 24.14 24.99 26.15 26.14 25.54 25.10 25.20 26.94 27.65 27.83 29.47 29.75 29.15 29.68 28.31 26.74 27.51 27.58
22.26 18.52 19.08 22.58 18.56 18.90 23.68 20.89 17.89 22.58 25.07 26.06 21.47 14.78 12.77 15.68 18.98 20.07 16.44 14.34 10.81 16.17 14.60 19.82 25.95 23.15 23.60 23.33 24.65 25.02 25.24 25.01 26.46 27.48 27.10 30.47 29.54 29.69 29.43 29.46 28.56 26.14 26.41 26.32
20.59 18.42 25.30 20.82 19.60 19.22 19.90 23.39 24.17 25.97 24.23 17.42 15.98 10.73 13.71 21.02 19.71 18.93 22.81 19.67 17.40 17.51 23.59 27.83 28.29 23.60 23.73 23.85 23.71 24.53 24.80 25.24 25.59 26.05 29.87 30.26 31.13 28.80 28.52 27.75 28.37 27.45 26.84 26.50

GFSNW_sfc_wetblb_063.txt.gz
Wetbulb
51.32 50.75 50.34 50.02 49.74 49.26 47.85 47.50 39.05 49.48 50.89 41.27 41.94 38.78 39.11 41.44 41.73 43.52 41.31 42.00 40.41 37.21 37.98 35.80 35.98 35.94 38.63 43.87 42.73 38.77 40.95 38.16 32.47 35.40 40.97 43.65 42.36 39.27 39.32 33.21 31.16 34.37 33.19 34.24
50.77 50.48 50.07 50.04 49.69 49.99 49.00 43.85 41.47 50.17 48.23 36.89 38.05 40.03 40.10 41.71 41.14 40.56 40.09 39.74 40.70 40.78 38.80 35.16 37.72 38.76 41.85 43.73 41.59 39.27 40.94 36.84 30.90 32.25 37.16 40.71 38.97 40.88 41.05 40.15 38.08 33.19 30.80 34.46
50.48 50.11 49.78 49.73 49.38 49.75 48.10 44.32 36.02 42.14 44.03 43.12 39.51 38.75 38.48 38.62 42.92 41.07 41.44 40.37 41.41 39.57 38.41 40.45 37.73 37.79 41.27 43.58 43.27 42.36 42.81 38.67 35.44 31.33 34.92 39.15 35.95 38.80 40.50 39.00 33.70 33.82 34.57 36.69
50.35 49.78 49.51 49.13 48.32 49.45 47.70 43.95 41.06 42.46 34.98 39.01 40.26 40.93 40.03 38.25 37.70 41.97 42.32 39.80 39.53 38.61 36.53 37.89 37.10 38.79 39.67 42.60 42.70 43.09 42.47 35.62 34.48 36.06 37.60 38.11 37.49 37.78 38.87 36.26 37.47 33.74 36.50 37.11
50.09 49.54 49.12 48.32 48.00 48.83 44.37 39.68 39.55 40.61 41.01 40.24 40.29 39.58 39.01 38.46 38.66 40.30 38.68 38.54 40.16 40.25 37.86 38.01 36.42 38.85 39.42 38.98 42.27 41.57 41.50 34.18 35.11 33.26 35.38 35.55 33.86 37.11 38.27 38.60 38.83 38.61 38.69 37.94
49.90 49.31 48.81 47.65 48.75 47.25 42.72 42.19 42.79 42.29 36.75 38.69 38.78 38.61 39.27 38.36 39.54 41.31 42.19 41.25 41.06 39.40 39.02 41.53 42.01 42.94 42.06 42.82 40.72 40.13 39.31 35.75 34.00 31.36 33.46 33.09 29.94 34.65 36.37 37.41 39.22 38.69 34.82 40.08
49.65 48.91 48.14 47.24 48.30 46.59 45.57 44.30 44.25 40.10 34.97 38.51 38.44 36.70 38.48 36.51 37.85 38.30 40.87 42.16 41.43 40.50 43.56 43.22 43.35 42.85 42.05 42.02 40.86 42.49 38.42 36.90 35.87 31.30 31.72 24.66 33.14 38.32 37.80 36.53 38.07 39.55 39.45 40.99
49.44 48.67 47.29 46.64 47.46 45.70 44.50 43.45 42.44 41.24 35.58 38.34 34.61 35.66 36.07 38.05 37.28 38.20 39.92 40.80 41.44 44.20 42.61 39.62 36.51 36.62 37.12 37.83 39.78 39.93 41.06 38.41 33.43 30.36 29.89 33.65 34.80 36.71 36.92 36.11 35.36 40.91 39.82 40.97
48.90 47.98 47.00 46.34 45.71 44.79 44.10 43.04 43.68 43.42 37.03 35.12 37.36 35.28 37.07 36.71 37.92 37.94 39.07 41.95 43.65 45.31 42.50 38.54 31.35 29.84 33.36 31.90 34.26 39.50 38.78 39.67 34.91 31.80 26.69 24.96 35.08 38.95 41.48 40.81 32.54 39.57 40.02 39.76
48.77 47.90 46.93 46.18 45.49 45.12 45.04 41.95 42.81 43.07 35.62 35.39 35.86 35.29 34.52 35.93 36.35 38.37 38.01 37.75 40.86 44.55 39.75 35.11 32.65 31.71 35.93 31.15 30.90 32.29 34.02 34.93 31.52 31.00 28.78 32.75 37.75 39.84 41.27 30.39 32.30 38.52 38.91 38.29
48.56 48.14 47.53 46.90 45.71 45.46 45.29 41.25 43.30 43.03 36.83 35.44 36.86 36.32 34.97 34.63 35.77 36.29 34.98 37.32 38.99 39.07 36.81 35.44 35.52 34.49 35.10 34.15 35.57 34.21 32.89 31.42 30.57 31.24 28.30 26.01 39.12 39.93 34.56 36.66 38.51 38.06 38.28 37.85
48.19 47.70 47.23 46.17 45.70 44.80 44.96 39.62 43.42 44.92 39.11 35.79 39.24 38.16 38.75 38.08 37.35 36.96 37.51 36.83 36.78 37.97 36.21 37.26 36.48 33.27 36.13 34.48 30.15 36.69 31.68 35.50 33.62 34.66 34.25 38.97 39.29 39.37 39.75 39.08 37.75 37.93 37.38 37.93
48.58 47.65 47.12 46.37 46.00 44.43 44.94 42.45 43.25 42.15 37.35 36.55 37.44 34.48 38.84 41.29 40.20 40.96 35.97 37.45 37.38 36.67 38.57 38.58 36.09 32.00 35.93 32.63 33.84 34.98 36.37 38.17 35.53 35.67 37.38 38.15 38.39 40.38 39.85 39.74 37.95 38.45 38.57 37.70
48.48 48.07 47.27 46.72 45.91 44.97 44.29 42.57 42.21 43.55 40.06 33.91 32.53 39.34 36.49 40.15 41.55 40.36 40.22 38.70 38.76 38.45 39.39 37.70 37.10 34.15 36.62 35.69 34.79 34.72 36.97 35.52 33.56 33.58 36.84 37.34 39.29 40.30 39.52 38.23 38.65 38.62 39.21 38.77
48.46 47.56 46.99 45.96 44.98 44.72 44.07 42.51 41.95 42.56 41.47 33.49 32.76 37.19 37.92 39.74 40.04 39.08 39.45 38.41 37.50 37.18 36.01 36.01 34.73 36.18 35.16 35.23 34.24 33.14 36.36 33.64 31.17 30.99 35.66 34.56 35.45 38.06 38.16 36.40 36.44 37.67 36.52 36.23
47.74 46.35 45.61 45.02 44.77 44.71 43.54 38.85 41.76 42.07 43.11 37.33 31.06 36.21 36.02 37.39 38.64 37.43 36.72 37.25 36.75 36.89 35.68 34.05 34.36 34.26 34.07 31.08 30.02 34.57 35.68 34.94 35.86 33.40 36.52 35.82 36.25 37.06 37.36 35.77 35.82 36.49 36.27 36.60
47.13 45.14 44.13 44.12 44.44 43.46 38.64 37.94 40.32 40.93 42.59 37.23 30.77 31.02 35.62 37.11 36.70 36.98 36.26 37.48 36.31 36.46 34.74 33.62 33.35 32.85 33.66 31.75 29.04 34.36 35.54 36.41 37.21 37.84 36.18 33.62 35.23 33.58 36.00 35.93 36.17 37.18 36.50 37.14
46.01 44.56 44.44 44.22 43.89 42.84 39.03 40.68 40.29 41.85 39.02 39.29 31.89 29.10 31.81 36.30 33.18 32.21 36.71 34.71 35.81 34.90 34.01 33.68 32.08 32.61 32.06 27.85 34.09 35.38 35.88 35.96 35.70 36.58 36.88 35.07 35.44 35.23 34.84 35.68 35.38 33.53 33.66 34.61
45.40 44.13 43.23 42.26 39.22 38.16 38.03 40.32 40.96 42.13 40.48 33.62 33.51 30.27 27.49 35.58 34.12 34.52 34.80 35.33 31.42 34.00 32.25 31.85 31.89 31.31 27.41 33.37 34.77 33.91 34.54 33.50 33.19 34.36 33.95 33.32 32.45 33.00 33.30 32.99 32.58 31.22 32.14 33.42
44.37 41.03 38.17 35.29 36.56 41.69 41.92 39.90 38.43 37.94 37.25 36.35 29.95 33.09 28.56 34.12 33.24 30.60 31.19 33.01 31.14 28.40 31.40 32.84 29.55 31.07 36.36 36.11 36.18 35.60 35.15 35.03 34.70 30.91 29.77 31.01 30.33 30.89 31.12 31.84 32.45 31.94 32.17 31.99
38.47 35.16 32.61 37.05 40.53 38.39 35.42 32.40 33.66 32.34 32.24 33.65 31.80 32.19 29.30 34.55 30.65 29.68 32.27 28.79 29.87 26.70 29.60 28.94 29.80 29.53 34.13 36.91 35.48 35.89 35.88 35.59 35.15 35.01 34.66 34.25 33.13 31.51 31.02 31.77 32.62 32.48 32.43 31.00
39.08 37.87 38.63 37.23 33.84 31.62 30.70 25.68 28.73 30.49 29.74 31.16 31.45 30.94 33.10 31.99 34.38 30.77 31.50 27.27 27.78 25.73 30.66 26.59 25.15 32.45 34.52 34.94 34.21 34.23 34.23 34.07 33.67 34.23 33.22 33.40 33.07 33.25 32.51 31.76 31.71 31.37 31.73 30.22
38.30 36.41 32.64 33.24 27.31 26.78 28.29 22.07 25.33 27.20 30.54 29.81 30.48 28.67 31.92 31.93 32.11 29.23 28.95 25.83 25.90 31.37 25.91 25.07 30.05 32.60 33.03 32.83 33.46 32.23 32.86 32.90 32.34 31.53 31.83 31.80 31.52 32.35 32.66 32.40 33.32 32.83 32.46 32.29
36.54 32.68 25.23 29.18 25.14 29.20 30.57 32.49 32.28 31.17 32.57 31.43 31.98 29.57 30.12 30.02 28.78 28.62 25.23 29.07 29.65 23.89 22.09 24.74 31.04 31.91 32.63 33.19 33.15 31.57 30.84 31.06 30.67 30.11 30.19 29.84 30.05 30.04 32.23 33.79 34.13 33.13 31.80 31.67
31.47 34.14 25.96 25.46 25.67 26.75 26.77 29.88 30.26 31.23 33.32 31.48 29.83 30.17 31.27 28.08 26.90 28.94 27.75 24.42 22.13 25.48 25.84 29.96 32.32 32.30 31.50 30.85 31.31 31.29 31.28 30.91 29.75 29.96 29.48 28.78 29.09 29.46 30.46 33.48 33.45 33.37 32.51 31.27
31.88 28.21 24.72 26.08 27.42 26.21 28.56 30.17 28.00 31.79 31.91 32.24 32.29 27.79 26.29 24.91 26.85 24.25 23.31 22.33 21.31 27.29 31.09 32.89 32.06 31.64 31.72 31.24 31.10 31.21 31.34 30.69 29.70 30.10 30.00 29.61 28.69 28.81 29.87 31.86 32.09 32.26 32.62 30.98
31.50 26.95 30.19 30.52 31.39 30.03 30.01 31.70 30.21 33.00 31.91 29.98 29.60 25.53 22.84 26.44 23.81 22.54 26.41 24.13 29.37 32.36 32.18 32.63 32.48 31.46 30.64 30.91 30.75 30.48 30.23 29.48 29.42 29.33 28.55 27.73 28.49 28.27 28.56 28.20 30.38 31.31 32.61 31.24

GFSNW_sfc_wetblb_066.txt.gz
Wetbulb
53.72 53.02 51.90 51.40 51.04 50.31 48.89 46.57 38.87 49.04 50.74 38.88 40.21 37.01 38.40 41.78 41.61 43.68 41.64 41.91 38.80 37.32 37.94 35.61 36.12 35.10 38.47 43.31 41.54 36.91 39.22 36.45 32.62 34.84 39.90 42.07 40.42 36.67 36.28 29.10 27.58 28.66 26.97 27.93
53.26 52.10 51.55 51.14 50.79 50.80 47.81 42.44 41.57 48.45 48.01 35.40 36.64 40.06 40.23 41.90 40.87 40.78 40.18 39.86 40.87 41.24 38.25 34.00 37.81 38.00 42.19 42.89 41.16 37.52 38.68 34.33 29.12 31.18 36.01 38.77 37.39 39.05 39.15 36.91 34.31 28.63 24.77 28.17
52.56 51.27 51.09 50.80 50.53 51.47 47.29 42.18 35.00 41.67 43.24 41.95 38.20 38.01 38.35 38.25 43.04 41.03 41.72 40.52 41.26 39.31 37.73 40.17 36.91 36.76 41.22 42.94 43.06 43.52 42.09 36.35 31.70 28.69 29.79 35.48 32.95 37.31 38.98 36.32 27.85 30.65 30.17 32.35
51.77 50.82 50.74 50.89 50.58 51.00 46.59 42.79 38.37 40.16 33.83 36.72 39.17 40.41 39.91 37.70 37.18 41.92 41.95 39.24 39.75 38.49 35.08 36.90 35.73 38.23 39.73 42.01 42.57 41.01 40.19 32.26 28.99 33.74 36.14 36.08 35.16 35.53 36.63 32.94 34.91 28.63 32.50 33.57
51.27 50.67 50.36 50.70 50.26 50.66 43.32 38.60 37.90 40.15 39.21 40.01 38.57 38.97 37.96 37.81 38.75 39.82 38.32 38.03 39.69 39.13 36.39 36.80 35.67 37.78 38.36 36.73 39.93 39.08 39.16 30.79 30.45 26.42 33.80 33.55 29.82 34.71 35.72 36.40 36.84 37.14 37.09 35.35
50.99 50.20 50.55 50.08 49.53 49.15 42.04 40.55 41.70 39.71 39.21 37.20 36.95 37.33 39.03 39.15 40.68 41.32 41.81 41.04 39.76 37.67 38.07 39.86 39.89 40.60 40.12 40.10 38.59 38.38 37.39 30.64 27.33 27.25 30.91 29.75 24.76 31.62 33.97 35.08 36.21 35.44 32.36 35.57
50.39 50.17 50.21 48.93 50.36 49.05 44.03 41.48 41.58 37.55 32.74 35.78 36.97 39.00 39.12 37.81 38.46 38.41 40.73 41.48 40.05 39.67 42.08 41.12 40.76 38.43 39.05 39.60 38.23 40.98 35.87 33.38 30.61 23.55 25.39 17.06 29.71 35.28 36.11 34.80 36.89 36.66 36.26 38.46
50.08 49.87 49.31 48.47 50.21 49.54 43.30 42.51 40.66 37.87 33.37 35.70 35.78 36.84 37.61 37.89 37.62 38.16 39.96 39.88 40.24 42.48 40.39 36.65 33.31 32.86 33.73 35.85 37.36 35.78 37.98 36.39 28.73 24.28 23.54 28.92 32.13 34.30 34.30 33.41 34.40 37.54 36.72 38.05
49.86 49.45 48.69 48.18 48.76 49.23 43.12 42.15 42.11 40.42 35.35 31.90 37.69 35.41 37.94 35.07 36.03 36.26 39.06 41.46 42.46 42.71 39.72 35.55 29.05 26.98 30.65 29.31 32.00 36.79 37.45 35.97 30.36 26.64 21.51 19.75 31.68 35.93 38.67 37.10 29.90 36.23 36.38 35.45
49.61 48.65 47.99 47.56 48.75 47.42 43.89 40.65 42.07 40.51 32.94 33.46 34.61 32.89 32.68 34.29 35.96 36.00 36.87 37.39 38.84 41.69 36.27 32.23 28.96 28.02 32.17 28.09 28.39 28.78 30.28 30.63 26.21 26.56 23.51 28.41 35.00 37.52 38.63 26.36 26.96 35.46 35.72 34.84
49.00 47.83 47.22 47.01 46.75 47.13 44.26 40.40 42.41 40.30 33.60 33.36 36.65 36.74 33.25 33.01 33.36 32.45 32.75 35.04 36.39 36.87 33.91 34.20 31.82 29.81 30.00 28.87 30.83 29.75 29.03 26.65 25.96 27.64 24.41 19.63 36.14 36.45 30.90 31.89 35.24 35.44 34.95 34.77
48.53 47.65 47.31 46.57 46.56 46.22 45.86 38.21 42.65 42.52 36.12 33.94 37.62 37.32 37.81 36.73 36.40 33.18 35.32 34.78 35.30 36.01 33.78 33.72 32.62 30.05 31.21 30.62 25.55 32.41 27.31 30.79 29.07 31.02 29.73 35.08 34.90 35.69 36.09 35.75 33.63 34.13 33.92 35.01
48.73 48.17 47.43 46.71 46.40 45.83 44.56 40.39 40.71 39.91 34.62 33.58 33.71 32.40 37.28 40.15 39.22 39.46 32.11 34.52 36.81 35.09 35.30 35.19 33.27 29.90 32.55 27.68 29.63 30.05 31.96 34.34 31.45 32.00 33.06 34.77 34.84 36.60 36.85 35.78 34.51 35.54 36.22 36.05
48.39 47.85 47.07 46.21 45.66 46.43 45.39 40.72 41.28 41.29 37.79 29.88 29.32 38.63 34.84 39.32 39.97 39.31 38.71 36.92 37.12 36.38 35.80 33.53 34.65 30.88 33.44 30.22 30.84 30.20 31.86 32.20 29.82 30.02 31.99 32.92 35.36 34.84 34.89 35.22 35.73 35.42 36.11 35.52
47.97 47.65 47.03 46.16 46.00 45.44 42.82 41.23 40.74 41.03 38.28 29.77 29.84 35.62 37.02 38.55 38.79 37.99 38.07 37.01 35.09 33.00 31.38 30.26 28.96 31.81 31.22 30.47 29.51 28.54 32.43 29.81 26.85 26.26 31.49 30.87 32.37 34.96 35.64 34.17 34.49 35.20 35.10 35.00
47.89 47.28 46.65 46.20 45.75 45.08 42.00 36.38 40.35 40.90 41.77 33.26 27.18 34.45 34.20 35.80 36.68 35.81 35.01 35.02 33.86 32.80 31.32 29.36 29.82 32.08 29.13 25.64 24.51 30.73 31.63 32.15 32.64 29.35 32.61 33.78 34.50 34.93 35.22 34.13 34.58 35.54 35.32 34.88
47.32 46.33 45.80 45.73 44.35 40.90 37.63 36.52 38.77 40.56 40.33 33.04 28.21 26.84 33.31 35.44 34.49 33.99 33.32 34.69 32.58 32.19 30.27 29.39 28.40 28.85 28.75 26.83 23.49 30.71 32.17 32.98 33.71 34.09 33.18 31.40 33.04 31.23 33.47 33.91 34.96 35.72 35.20 34.98
45.81 45.26 45.24 45.12 44.26 43.04 37.70 39.21 41.35 41.58 36.89 35.90 25.98 24.01 27.75 34.66 31.97 31.03 33.56 30.44 31.68 30.93 29.65 29.60 27.61 28.15 27.29 23.72 30.22 31.78 33.10 32.79 32.31 32.00 32.34 31.49 31.51 31.25 31.63 32.45 32.48 32.13 31.85 32.59
45.89 45.96 45.08 42.06 38.58 36.65 36.21 40.28 41.76 40.73 38.07 28.06 29.11 23.14 19.94 33.03 32.41 33.45 31.22 30.95 27.37 30.05 28.30 28.22 28.29 26.83 21.96 29.10 31.14 30.67 31.53 30.68 30.23 31.54 30.99 30.69 29.67 29.55 29.66 29.48 29.61 30.67 30.84 31.57
45.31 41.67 38.59 34.14 35.98 41.60 40.74 39.02 35.90 33.45 33.10 33.15 24.68 29.10 23.55 31.25 31.68 29.92 29.94 31.21 29.40 26.01 27.56 29.03 26.16 26.35 32.90 32.13 31.85 31.67 31.88 31.92 31.22 24.31 25.02 27.48 25.97 28.66 28.71 28.78 29.30 30.57 31.59 31.70
38.86 34.19 32.36 37.71 41.51 37.48 34.08 28.83 28.82 28.79 26.40 30.40 27.44 27.17 24.96 31.55 28.74 28.26 31.54 27.94 28.57 24.50 27.53 24.04 27.77 24.33 29.13 30.98 30.76 31.28 30.81 30.86 30.37 30.91 30.90 30.38 29.97 28.19 28.99 29.87 30.38 30.36 31.71 30.83
38.73 37.08 38.53 37.06 33.56 31.80 25.03 21.58 26.77 26.94 24.78 28.47 27.26 27.93 29.55 30.40 32.50 29.92 29.55 27.08 27.09 24.38 28.40 25.65 22.13 29.99 29.39 29.56 29.50 29.73 29.41 29.49 29.98 30.59 29.79 29.66 30.06 29.45 29.14 29.09 28.99 29.89 32.13 32.12
38.37 35.63 29.94 29.89 24.60 22.79 20.93 18.21 22.44 20.95 27.22 27.27 26.70 24.20 28.74 30.20 31.70 28.80 28.10 24.85 25.03 29.90 24.65 22.77 25.75 30.57 28.74 28.28 27.54 28.25 29.59 30.01 29.88 29.30 29.78 29.82 29.29 29.99 29.19 28.02 29.45 31.28 32.46 33.15
34.01 27.02 18.71 21.60 19.69 24.68 28.78 28.73 25.61 27.78 28.90 29.91 28.56 26.12 26.29 28.38 28.06 27.90 17.76 26.81 28.21 21.43 15.26 18.05 27.21 28.60 28.36 28.55 29.33 28.59 27.51 28.50 28.08 24.51 24.70 26.13 26.85 27.06 28.41 28.80 29.12 30.09 31.00 32.21
27.27 28.44 17.09 22.31 25.80 26.35 27.39 27.60 27.27 28.58 30.72 28.62 27.11 25.87 26.75 26.25 21.35 25.52 22.28 22.20 11.73 17.87 16.95 22.88 24.10 25.46 26.48 27.21 27.99 27.26 26.73 24.77 23.30 24.36 23.97 23.79 24.04 25.60 26.72 27.27 27.73 28.75 29.97 30.51
28.92 26.47 22.77 26.45 25.55 24.08 26.46 26.77 26.31 28.99 29.45 28.98 29.07 23.06 19.44 19.61 20.55 17.67 13.91 13.52 11.46 18.65 21.90 24.79 25.79 24.72 26.56 26.82 26.95 27.19 27.28 26.73 26.34 24.64 24.96 23.59 22.73 23.41 24.76 25.89 26.17 27.42 28.32 29.46
27.29 24.45 29.55 29.09 28.39 27.43 28.66 28.64 26.91 30.21 28.63 24.53 25.31 16.77 17.26 22.49 16.66 15.94 19.45 15.22 20.36 23.51 24.05 24.91 26.14 25.69 25.87 26.05 26.03 26.24 26.52 26.56 26.05 24.29 25.04 23.69 22.93 21.63 21.19 22.27 25.61 25.71 27.95 29.36

GFSNW_sfc_wetblb_069.txt.gz
Wetbulb
51.63 52.82 54.20 52.17 51.80 51.26 48.98 43.77 35.10 48.08 47.45 36.66 38.90 34.92 37.76 41.54 40.75 41.83 41.31 41.56 38.78 35.71 36.32 34.62 33.83 32.75 36.44 41.06 39.76 35.15 37.22 33.66 29.20 30.27 38.74 39.48 38.17 36.84 36.15 28.55 27.12 27.38 24.96 26.40
51.20 54.62 53.38 51.48 51.70 51.48 45.09 40.18 40.21 47.95 45.71 29.49 34.66 39.34 38.67 41.26 40.07 38.99 40.10 39.36 39.49 41.67 36.55 34.07 36.43 35.85 42.03 41.95 40.72 35.68 36.93 29.27 27.51 27.37 32.52 36.66 35.29 37.07 37.80 34.85 32.45 26.52 22.93 26.11
51.51 53.69 52.59 51.59 51.84 52.28 46.42 38.61 34.11 40.89 41.82 38.79 33.47 34.69 36.22 37.04 41.19 39.26 40.37 38.76 38.63 36.81 35.35 39.28 35.54 36.17 40.89 41.34 41.30 43.74 40.86 33.89 27.07 22.57 26.30 33.71 32.18 36.22 37.34 33.37 23.28 28.74 30.01 29.86
53.86 52.81 51.86 51.53 51.64 52.05 45.05 39.63 33.96 36.47 33.44 33.36 35.05 35.93 37.51 37.07 35.64 39.54 39.38 36.65 37.31 37.43 34.72 36.16 35.62 37.59 39.46 41.14 42.48 39.54 37.99 28.13 27.28 32.45 34.55 34.31 33.74 34.34 35.71 31.42 33.04 27.47 31.70 31.63
52.07 52.20 51.26 51.13 51.62 51.64 42.23 36.83 35.21 36.35 33.72 35.29 34.71 35.81 35.42 37.56 37.68 37.76 35.88 35.49 37.74 37.33 35.14 33.94 33.92 37.07 38.04 36.32 38.06 37.54 37.34 27.54 28.57 26.21 33.13 32.61 29.73 33.15 33.76 35.08 35.35 35.03 34.42 33.83
53.24 51.51 50.78 50.84 51.41 48.42 40.28 38.06 37.70 36.41 35.54 32.84 32.48 33.59 35.60 39.03 38.78 39.67 39.67 38.67 36.81 35.38 36.11 36.50 36.27 38.05 39.45 38.60 36.91 36.63 34.77 28.18 24.06 22.24 29.02 27.60 23.40 29.62 32.28 33.23 34.55 34.88 31.65 34.45
52.53 50.96 50.25 50.89 51.21 47.74 41.00 38.23 37.13 33.17 30.67 31.77 33.70 36.84 37.91 38.37 36.89 36.48 38.36 37.98 37.07 37.48 39.71 38.80 38.35 36.97 37.44 37.51 35.93 39.24 34.66 30.96 27.20 20.40 24.18 15.20 28.07 32.79 34.27 34.19 35.03 35.12 35.17 36.10
51.89 50.74 50.10 50.40 50.89 50.12 41.17 39.29 37.23 32.94 29.22 31.84 35.03 36.11 35.32 35.74 36.40 36.25 37.48 37.32 37.78 39.95 37.75 33.88 30.94 30.72 31.90 33.69 35.29 34.57 36.93 33.31 25.73 22.35 20.86 26.56 30.06 32.61 32.41 32.10 31.09 34.98 34.28 34.68
51.04 50.48 49.69 49.68 49.96 50.51 41.01 38.43 38.86 35.87 31.74 27.61 31.44 34.11 34.62 32.06 32.62 33.52 36.69 39.04 40.43 40.44 37.58 33.45 25.83 24.16 28.78 27.89 29.96 35.29 35.71 34.24 27.70 24.66 19.53 19.64 29.38 34.22 37.55 36.16 28.37 34.29 34.56 32.91
50.42 49.72 49.51 48.90 49.82 49.60 41.62 38.72 39.43 34.93 28.61 30.41 31.85 30.46 31.89 33.79 32.86 31.78 34.68 35.60 37.09 39.75 33.78 30.00 26.15 23.96 30.73 25.72 26.14 26.69 28.40 28.64 24.23 24.53 20.83 26.08 33.24 35.88 36.95 24.06 24.57 33.56 33.61 32.97
49.88 49.09 48.65 48.43 49.28 48.58 41.82 38.51 40.12 35.29 29.57 30.80 33.69 33.74 30.39 30.71 30.85 30.98 31.36 33.71 34.96 34.37 31.32 30.09 28.83 27.03 28.04 27.15 29.26 28.75 27.48 24.61 24.67 25.35 22.72 19.88 33.81 34.69 29.68 30.77 32.78 34.16 34.18 33.50
48.84 48.03 47.88 48.16 49.19 46.46 43.08 36.89 40.44 39.32 32.74 30.91 35.81 35.52 35.81 35.11 33.72 32.51 33.35 32.47 32.92 33.85 31.20 31.26 29.98 28.17 28.68 27.27 23.89 29.86 27.95 29.76 27.86 27.89 27.16 33.01 34.16 32.55 33.05 33.37 32.16 32.35 32.19 33.59
47.86 47.43 47.43 47.65 47.53 46.86 42.91 38.09 38.32 36.24 31.65 30.14 30.58 30.38 34.91 37.86 37.17 37.49 31.46 32.55 35.18 33.46 33.99 32.32 31.02 28.70 30.56 25.97 27.26 27.07 29.53 32.28 30.09 31.14 31.49 32.03 32.01 33.11 33.76 33.60 32.68 33.18 33.51 33.27
47.99 47.91 47.25 47.18 46.92 46.32 43.29 37.83 39.56 37.19 33.71 26.69 28.39 36.71 33.56 37.94 38.00 37.75 37.01 35.53 35.51 34.90 33.62 30.08 30.08 28.83 31.42 28.55 29.72 29.02 31.35 31.86 28.80 28.25 29.00 30.28 31.64 32.53 32.84 33.64 34.29 34.25 34.91 34.79
48.79 47.72 46.99 46.25 47.03 45.58 41.00 38.61 38.97 39.43 34.32 27.28 28.10 33.16 35.29 36.28 36.71 36.00 36.25 35.20 33.01 31.00 29.23 26.22 26.72 29.45 29.84 28.45 27.64 26.26 30.68 29.51 26.82 25.86 29.86 29.08 29.84 32.29 33.51 32.09 32.73 33.94 34.05 34.25
47.90 47.27 46.29 46.71 45.94 44.17 39.64 33.10 38.27 39.94 37.94 29.66 24.38 33.25 32.31 34.22 34.78 34.04 33.63 33.72 32.15 30.87 29.16 27.25 27.72 30.48 27.38 23.47 22.98 28.95 29.23 30.45 31.19 28.81 31.21 31.89 32.15 33.11 32.25 31.81 32.28 33.53 33.38 33.13
47.80 46.88 46.49 46.03 44.28 38.60 36.60 33.83 36.67 40.40 38.70 29.99 24.31 23.36 32.49 34.43 33.21 32.00 31.55 32.42 30.83 30.04 28.24 27.40 26.60 27.09 26.14 24.72 22.27 28.71 29.36 31.43 31.99 32.42 30.78 29.76 30.87 28.81 30.74 30.98 32.03 32.98 31.99 31.70
47.25 46.56 45.73 44.50 43.76 41.13 34.72 37.21 40.99 40.97 35.46 31.13 20.51 23.94 26.07 32.95 28.46 27.71 31.65 28.87 29.55 28.71 27.60 27.72 26.03 26.98 25.66 22.55 27.59 29.05 30.39 30.44 29.58 29.33 29.88 29.34 29.29 28.97 29.04 29.81 29.43 29.04 28.79 29.36
46.63 45.88 45.52 40.50 37.53 34.37 34.87 40.63 41.79 38.49 32.31 25.99 22.25 18.46 16.11 30.89 31.95 31.20 29.58 29.21 26.63 28.87 26.96 26.74 27.24 25.27 20.30 26.86 28.51 28.15 29.27 28.96 28.24 29.52 29.09 29.01 28.27 28.47 28.74 28.59 28.00 27.10 27.89 28.63
46.53 41.55 36.29 32.31 34.57 41.59 41.38 37.17 31.34 30.61 30.36 28.85 21.59 23.00 23.09 31.45 30.99 29.63 30.05 30.00 28.23 18.66 26.47 27.52 25.51 24.30 28.92 28.96 29.23 29.67 30.18 30.50 29.60 21.53 24.05 25.99 24.87 26.64 27.07 27.48 28.53 28.20 28.59 29.15
37.14 32.76 32.37 36.86 41.30 35.34 32.88 27.25 23.22 26.53 23.24 25.06 22.82 22.62 24.62 30.30 26.11 27.72 30.50 27.69 28.42 23.66 24.26 22.82 25.20 26.69 28.25 28.81 27.82 28.34 28.12 28.37 28.34 28.54 28.02 27.52 27.31 24.71 25.67 26.88 27.86 28.16 28.10 27.79
37.71 36.24 37.52 35.43 31.68 27.14 21.61 16.61 25.24 25.73 21.88 25.98 24.81 26.75 26.74 27.66 30.13 26.11 28.04 25.30 26.86 23.19 28.21 25.04 21.89 27.91 30.45 29.80 27.90 26.99 27.37 27.04 28.06 28.57 27.81 27.69 27.59 27.42 26.88 25.79 25.09 25.69 26.93 28.20
37.79 32.48 27.76 25.12 20.23 16.73 15.40 16.13 20.32 18.05 24.27 24.74 24.70 20.85 25.90 27.68 30.33 28.44 27.75 22.09 23.64 29.09 24.26 22.00 25.73 28.61 29.56 27.27 25.25 26.97 27.77 28.26 28.54 28.07 28.17 27.95 27.22 27.64 26.91 25.93 26.95 27.14 27.12 28.40
30.52 24.23 19.28 17.80 13.50 18.59 24.42 24.03 22.69 25.36 25.48 26.96 25.77 23.51 24.43 27.18 25.87 27.43 12.12 25.91 26.29 13.94 10.52 12.99 22.37 28.49 26.84 27.19 27.34 26.42 25.05 26.02 26.20 24.22 23.21 23.95 24.97 25.12 26.40 26.61 26.18 25.77 25.35 26.42
22.06 22.50 16.92 14.93 23.81 23.69 24.54 25.31 26.67 25.61 28.38 27.00 24.84 23.83 25.13 23.36 19.27 23.85 20.72 19.33 7.06 14.44 14.44 22.02 21.17 24.66 24.33 24.99 26.04 25.66 24.61 21.62 20.88 22.02 20.80 21.98 22.08 22.83 24.26 25.01 24.25 24.33 24.71 25.44
22.40 20.67 19.54 24.68 21.07 19.82 23.88 25.49 27.27 26.68 27.92 25.39 25.62 21.11 16.79 17.85 17.93 15.23 10.82 10.45 9.02 15.72 17.47 22.18 22.87 22.59 24.24 24.27 25.16 24.88 24.94 24.56 24.64 23.67 23.28 23.38 21.51 22.52 23.24 23.27 23.32 23.66 24.37 24.92
21.84 22.10 26.84 25.22 23.62 22.98 24.22 26.15 26.26 28.38 26.42 20.90 21.39 15.13 16.09 21.42 14.81 15.28 15.96 13.19 16.92 20.42 20.87 21.56 24.78 24.31 24.02 24.13 24.55 24.76 24.73 24.29 24.03 22.08 22.64 22.02 23.42 19.05 17.56 18.24 22.67 22.35 24.79 24.67